Weather History for KBVU - October, 2012

Change the Weather History Date:

Wednesday, October 3, 2012

  Actual Average (KLAS) Record (KLAS)
Temperature  
Mean Temperature 82 °F 75 °F  
Max Temperature 98 °F 86 °F 99 °F (1980)
Min Temperature 66 °F 64 °F 44 °F (1950)
Degree Days  
Heating Degree Days 0 0  
Month to date heating degree days 0  
Since 1 July heating degree days 1  
Cooling Degree Days 17 10  
Month to date cooling degree days 32  
Year to date cooling degree days 3409  
Growing Degree Days 32 (Base 50)    
Moisture  
Dew Point 29 °F    
Average Humidity 16    
Maximum Humidity 30    
Minimum Humidity 7    
Precipitation  
Precipitation 0.00 in 0.01 in 0.11 in (1974)
Month to date precipitation 0.02  
Year to date precipitation 3.08  
Snow  
Snow 0.00 in 0.00 in 0.00 in ()
Month to date snowfall 0.0  
Since 1 July snowfall 0.0  
Since 1 September snowfall 0.0  
Snow Depth -    
Sea Level Pressure  
Sea Level Pressure 29.90 in    
Wind  
Wind Speed 4 mph (WSW)    
Max Wind Speed 15 mph    
Max Gust Speed 23 mph    
Visibility 10 miles    
Events      
T = Trace of Precipitation, MM = Missing Value Source: NWS Daily Summary

Daily Weather History Graph

Daily Weather History Graph

Search for Another Location

Airport or City:

Trip Planner

Search our weather history database for the weather conditions in past years. The results will help you decide how hot, cold, wet, or windy it might be!

Date:

Astronomy

Oct. 03, 2012 Rise Set
Actual Time 6:36 AM PDT 6:19 PM PDT
Civil Twilight 6:10 AM PDT 6:44 PM PDT
Nautical Twilight 5:41 AM PDT 7:14 PM PDT
Astronomical Twilight 5:11 AM PDT 7:44 PM PDT
Moon 8:22 PM PDT (10/3) 9:56 AM PDT (10/3)
Length of Visible Light 12h 33m
Length of Day
11h 42m
Waning Gibbous, 88% of the Moon is Illuminated
Oct 3
Waning Gibbous
Oct 8
Last Quarter
Oct 15
New
Oct 21
First Quarter
Oct 29
Full

Hourly Weather History & Observations

Time (PDT) Temp. Dew Point Humidity Pressure Visibility Wind Dir Wind Speed Gust Speed Precip Events Conditions
12:15 AM 75.2 °F 26.6 °F 17% 29.86 in 10.0 mi Calm Calm - N/A   Clear
12:35 AM 73.4 °F 28.4 °F 19% 29.86 in 10.0 mi WNW 3.5 mph - N/A   Clear
12:55 AM 73.4 °F 28.4 °F 19% 29.86 in 10.0 mi NW 4.6 mph - N/A   Clear
1:15 AM 73.4 °F 28.4 °F 19% 29.87 in 10.0 mi WNW 4.6 mph - N/A   Clear
1:35 AM 73.4 °F 28.4 °F 19% 29.87 in 10.0 mi NW 3.5 mph - N/A   Clear
1:55 AM 71.6 °F 30.2 °F 22% 29.87 in 10.0 mi Calm Calm - N/A   Clear
2:15 AM 71.6 °F 30.2 °F 22% 29.87 in 10.0 mi Calm Calm - N/A   Clear
2:35 AM 71.6 °F 30.2 °F 22% 29.87 in 10.0 mi Calm Calm - N/A   Clear
2:55 AM 69.8 °F 32.0 °F 25% 29.87 in 10.0 mi Calm Calm - N/A   Clear
3:15 AM 69.8 °F 28.4 °F 21% 29.87 in 10.0 mi North 5.8 mph - N/A   Clear
3:35 AM 71.6 °F 32.0 °F 23% 29.87 in 10.0 mi Calm Calm - N/A   Clear
4:15 AM 68.0 °F 33.8 °F 28% 29.87 in 10.0 mi Calm Calm - N/A   Clear
4:35 AM 68.0 °F 32.0 °F 26% 29.87 in 10.0 mi Calm Calm - N/A   Clear
4:55 AM 68.0 °F 32.0 °F 26% 29.87 in 10.0 mi Calm Calm - N/A   Clear
5:15 AM 69.8 °F 28.4 °F 21% 29.88 in 10.0 mi Calm Calm - N/A   Clear
5:35 AM 68.0 °F 30.2 °F 24% 29.88 in 10.0 mi Calm Calm - N/A   Clear
5:55 AM 66.2 °F 32.0 °F 28% 29.88 in 10.0 mi Calm Calm - N/A   Clear
6:15 AM 66.2 °F 33.8 °F 30% 29.89 in 10.0 mi ENE 3.5 mph - N/A   Clear
6:35 AM 68.0 °F 32.0 °F 26% 29.89 in 10.0 mi NE 5.8 mph - N/A   Clear
6:55 AM 68.0 °F 33.8 °F 28% 29.89 in 10.0 mi NNE 3.5 mph - N/A   Clear
7:15 AM 69.8 °F 33.8 °F 27% 29.90 in 10.0 mi NE 3.5 mph - N/A   Clear
7:35 AM 71.6 °F 35.6 °F 27% 29.91 in 10.0 mi Calm Calm - N/A   Clear
8:15 AM 78.8 °F 33.8 °F 20% 29.93 in 10.0 mi NE 5.8 mph - N/A   Clear
8:35 AM 80.6 °F 32.0 °F 17% 29.94 in 10.0 mi NE 5.8 mph - N/A   Clear
8:55 AM 82.4 °F 32.0 °F 16% 29.94 in 10.0 mi NE 4.6 mph - N/A   Clear
9:15 AM 84.2 °F 30.2 °F 14% 29.95 in 10.0 mi ENE 4.6 mph - N/A   Clear
9:35 AM 86.0 °F 28.4 °F 12% 29.95 in 10.0 mi ENE 4.6 mph - N/A   Clear
10:15 AM 87.8 °F 26.6 °F 11% 29.95 in 10.0 mi ESE 4.6 mph - N/A   Clear
10:55 AM 89.6 °F 28.4 °F 11% 29.94 in 10.0 mi SSW 3.5 mph - N/A   Clear
11:15 AM 91.4 °F 28.4 °F 10% 29.94 in 10.0 mi South 3.5 mph - N/A   Clear
11:35 AM 91.4 °F 28.4 °F 10% 29.94 in 10.0 mi SW 4.6 mph - N/A   Clear
11:55 AM 93.2 °F 28.4 °F 10% 29.93 in 10.0 mi SSW 8.1 mph - N/A   Clear
12:15 PM 95.0 °F 26.6 °F 9% 29.93 in 10.0 mi SSW 10.4 mph - N/A   Clear
12:35 PM 95.0 °F 26.6 °F 9% 29.91 in 10.0 mi SW 8.1 mph - N/A   Clear
12:55 PM 96.8 °F 26.6 °F 8% 29.90 in 10.0 mi SW 9.2 mph - N/A   Clear
1:15 PM 96.8 °F 24.8 °F 8% 29.90 in 10.0 mi WSW 12.7 mph 20.7 mph N/A   Clear
1:35 PM 98.6 °F 24.8 °F 7% 29.89 in 10.0 mi WSW 10.4 mph - N/A   Clear
1:55 PM 98.6 °F 24.8 °F 7% 29.88 in 10.0 mi SW 13.8 mph - N/A   Clear
2:15 PM 98.6 °F 24.8 °F 7% 29.88 in 10.0 mi SW 13.8 mph 19.6 mph N/A   Clear
2:35 PM 98.6 °F 24.8 °F 7% 29.88 in 10.0 mi WSW 15.0 mph 23.0 mph N/A   Clear
3:15 PM 98.6 °F 24.8 °F 7% 29.88 in 10.0 mi SW 12.7 mph 20.7 mph N/A   Clear
3:35 PM 98.6 °F 24.8 °F 7% 29.88 in 10.0 mi WSW 15.0 mph 20.7 mph N/A   Clear
3:55 PM 96.8 °F 24.8 °F 8% 29.88 in 10.0 mi WSW 13.8 mph - N/A   Clear
4:15 PM 96.8 °F 24.8 °F 8% 29.88 in 10.0 mi SW 12.7 mph 17.3 mph N/A   Clear
4:35 PM 95.0 °F 24.8 °F 8% 29.88 in 10.0 mi SW 11.5 mph - N/A   Clear
4:55 PM 95.0 °F 24.8 °F 8% 29.87 in 10.0 mi SW 13.8 mph - N/A   Clear
5:15 PM 95.0 °F 24.8 °F 8% 29.87 in 10.0 mi WSW 12.7 mph - N/A   Clear
5:35 PM 93.2 °F 24.8 °F 9% 29.87 in 10.0 mi SW 9.2 mph - N/A   Clear
5:55 PM 93.2 °F 24.8 °F 9% 29.87 in 10.0 mi SW 6.9 mph - N/A   Clear
6:15 PM 91.4 °F 26.6 °F 10% 29.87 in 10.0 mi SSW 6.9 mph - N/A   Clear
6:35 PM 87.8 °F 28.4 °F 12% 29.87 in 10.0 mi SW 5.8 mph - N/A   Clear
6:55 PM 86.0 °F 28.4 °F 12% 29.87 in 10.0 mi SW 4.6 mph - N/A   Clear
7:15 PM 84.2 °F 28.4 °F 13% 29.88 in 10.0 mi Calm Calm - N/A   Clear
7:35 PM 82.4 °F 28.4 °F 14% 29.88 in 10.0 mi Calm Calm - N/A   Clear
7:55 PM 80.6 °F 28.4 °F 15% 29.89 in 10.0 mi Calm Calm - N/A   Clear
8:15 PM 82.4 °F 26.6 °F 13% 29.89 in 10.0 mi Calm Calm - N/A   Clear
8:35 PM 75.2 °F 35.6 °F 24% 29.90 in 10.0 mi NW 5.8 mph - N/A   Clear
8:55 PM 78.8 °F 26.6 °F 15% 29.90 in 10.0 mi West 3.5 mph - N/A   Clear
9:15 PM 77.0 °F 28.4 °F 17% 29.91 in 10.0 mi WNW 3.5 mph - N/A   Clear
9:35 PM 78.8 °F 26.6 °F 15% 29.91 in 10.0 mi Calm Calm - N/A   Clear
9:55 PM 77.0 °F 28.4 °F 17% 29.92 in 10.0 mi Calm Calm - N/A   Clear
10:15 PM 77.0 °F 26.6 °F 16% 29.92 in 10.0 mi Calm Calm - N/A   Clear
10:35 PM 78.8 °F 26.6 °F 15% 29.93 in 10.0 mi Calm Calm - N/A   Clear
10:55 PM 73.4 °F 32.0 °F 22% 29.93 in 10.0 mi WNW 4.6 mph - N/A   Clear
11:15 PM 75.2 °F 26.6 °F 17% 29.93 in 10.0 mi WNW 3.5 mph - N/A   Clear
11:35 PM 75.2 °F 28.4 °F 18% 29.93 in 10.0 mi WNW 4.6 mph - N/A   Clear
11:55 PM 75.2 °F 28.4 °F 18% 29.93 in 10.0 mi WNW 4.6 mph - N/A   Clear